Tracking 30696 objects as of 15-Jun-2025
HD Live streaming from Space Station
objects crossing your sky now

TITAN 3C TRANSTAGE DEB

Track TITAN 3C TRANSTAGE DEB now!


NORAD ID: 26777
Int'l Code: 1965-108AV
Perigee: 1,111.8 km
Apogee: 31,217.6 km
Inclination: 27.3 °
Period: 561.1 minutes
Semi major axis: 22535 km
RCS: 0.1056 m2 (medium)
Launch date: December 21, 1965
Source: United States (US)
Launch site: AIR FORCE EASTERN TEST RANGE (AFETR)

Note: This is SATELLITE DEBRIS
Your satellite tracking list
Your tracking list is empty




NASA's NSSDC Master Catalog

Two Line Element Set (TLE):
1 26777U 65108AV  25165.88199907 -.00000061  00000-0  00000-0 0  9997
2 26777  27.3192 324.4358 6679565 222.6673 351.1984  2.56623048 36608
Source of the keplerian elements: AFSPC